Location: Newark
(25.6108°S, 54.5803°W)
Time: 21:09:55
(UTC+00:00)

Courier 1B - Pass Details

Date: 02 November 2020
Orbit: 962 x 1209 km, 28.3° (Epoch: 24 November)

Event Time Altitude Azimuth Distance (km) Brightness Sun altitude
Rises 02:16:47 0° 268° (W) 3,943 10.9 -46.5°
Enters shadow 02:18:49 - 266° (W) 3,256 10.4 -46.7°
Reaches altitude 10° 02:19:31 10° 266° (W) 3,019 - -46.8°
Maximum altitude 02:27:03 72° 181° (S) 1,232 - -47.4°
Drops below altitude 10° 02:34:55 10° 96° (E) 3,146 - -47.9°
Sets 02:37:50 0° 94° (E) 4,117 - -48.1°
